Temp
20 20 21 21 23 23 25 27 27 27 25 24 26 25 23 22 23 23 19 20 20 20 20 21 21 21 21 21 21 21 22 22 22 21 21 21 21 21 21 21 21 21 20 20 20 20 21 21 21
21 21 21 22 24 24 26 25 26 25 25 25 25 24 23 22 22 19 19 20 20 20 20 21 21 21 21 21 22 21 21 21 21 21 21 21 21 21 20 20 20 20 20 20 20 20 20 20 21
22 22 21 22 24 24 25 26 24 25 26 26 24 24 23 21 21 20 20 20 20 20 21 21 21 21 21 21 21 21 21 21 21 21 21 21 21 21 20 20 20 20 21 21 20 20 20 20 21
22 22 21 24 25 26 26 26 26 25 26 25 24 22 22 22 21 20 20 20 20 20 21 21 21 21 21 21 21 21 21 21 21 21 21 22 21 21 20 20 20 21 21 20 20 20 21 21 21
23 22 23 24 25 26 27 27 26 26 25 25 25 22 21 21 21 19 20 20 20 20 21 20 21 21 21 21 21 21 21 21 22 22 22 21 21 21 21 21 21 21 21 21 21 21 21 21 22
22 22 24 24 26 26 28 27 27 26 24 24 23 22 21 20 19 19 20 20 20 21 21 20 21 21 21 21 21 21 21 22 22 22 21 21 21 21 21 21 21 21 21 21 22 22 22 22 22
22 23 24 24 25 26 28 27 25 25 25 24 24 22 21 20 20 19 20 20 20 21 21 21 21 20 21 21 21 21 22 22 22 21 22 22 22 22 22 22 22 21 22 22 22 23 23 23 22
22 23 23 24 25 26 28 28 26 26 25 26 24 21 21 20 20 20 20 20 20 21 21 21 21 21 21 21 20 21 22 22 22 22 22 22 22 22 22 22 22 22 22 22 23 23 23 23 23
23 23 23 25 25 28 28 27 27 26 25 26 25 23 23 20 20 19 19 19 20 20 21 21 21 21 21 21 21 21 22 22 22 22 23 22 23 23 23 23 23 23 23 23 23 23 23 23 23
22 22 25 27 28 27 28 27 27 26 25 25 24 23 21 21 20 20 20 20 19 20 21 21 21 21 21 21 21 22 22 22 22 23 23 23 23 23 23 23 23 23 23 23 23 23 23 23 24
22 24 27 29 29 28 28 27 27 26 25 24 22 22 22 21 21 20 20 19 19 20 20 21 21 21 21 21 21 22 22 23 23 23 23 23 23 23 23 24 24 23 23 23 23 23 23 23 24
23 24 26 27 30 29 28 28 27 27 27 26 24 23 22 21 21 20 20 20 20 20 21 21 21 21 21 21 22 22 23 23 23 23 23 23 24 24 24 24 24 24 24 24 24 24 24 24 24
24 26 28 29 30 29 29 29 28 27 27 26 24 23 22 22 22 21 21 20 20 20 21 21 21 21 22 22 22 23 23 24 24 23 24 24 23 24 24 24 24 24 24 24 24 24 24 24 23
27 27 28 30 30 30 29 28 28 27 27 25 24 23 23 23 22 22 21 21 20 21 21 22 22 22 22 22 23 24 24 24 24 24 24 24 24 24 24 24 24 24 24 24 24 24 24 23 24
28 27 28 28 29 29 29 28 27 28 26 25 24 24 23 23 23 23 22 21 21 21 22 21 22 22 22 23 23 24 24 24 24 25 24 24 24 24 24 24 24 24 24 24 24 24 24 24 24
28 27 26 29 29 29 29 27 28 27 26 25 25 24 24 24 24 23 23 22 22 21 21 22 22 22 23 23 24 24 24 24 25 24 24 24 24 24 24 24 24 24 24 24 23 23 23 23 24
24 25 26 29 30 30 29 28 28 27 27 25 25 25 24 24 24 24 24 23 23 22 23 22 22 22 23 23 24 24 24 24 25 24 24 25 25 24 24 24 24 24 24 24 23 23 23 24 24
24 26 27 29 31 29 28 27 27 27 26 26 25 25 25 24 24 24 24 23 23 23 23 23 23 23 24 24 24 24 23 24 24 24 25 26 26 25 24 24 24 24 24 23 23 23 23 23 24
26 27 28 29 30 29 28 27 26 27 27 26 26 25 25 25 25 25 24 24 23 23 23 23 23 23 23 23 23 22 23 24 24 24 26 26 26 25 24 24 24 24 24 23 22 23 23 23 23
27 27 27 27 29 30 28 28 26 27 27 26 26 26 26 25 25 25 25 24 24 23 24 23 24 24 23 24 24 23 24 24 24 25 25 26 26 25 25 24 24 24 24 23 23 23 23 23 22
25 26 26 28 29 29 28 27 25 27 27 27 27 27 26 26 26 25 25 25 24 23 23 23 25 24 24 24 23 23 23 23 23 24 24 25 25 25 25 26 24 24 24 23 23 23 23 23 22
22 26 27 28 28 26 28 25 25 26 26 27 27 27 27 27 27 26 26 25 25 24 24 23 23 24 24 24 23 23 23 22 23 24 25 25 25 25 25 25 24 24 24 24 23 23 23 23 23
26 27 27 28 26 27 28 25 25 26 26 27 27 27 28 28 28 27 26 26 26 25 24 24 24 24 24 24 23 23 23 24 25 25 25 25 25 25 25 25 24 24 24 24 23 23 23 23 23
27 27 24 22 23 24 26 25 25 24 27 27 28 28 28 28 28 28 27 26 26 26 25 24 23 24 24 23 24 23 23 23 24 25 25 25 25 25 25 25 24 24 24 24 23 23 23 23 23
26 24 22 23 22 25 25 24 29 27 29 29 29 29 29 29 29 28 28 27 26 26 25 24 23 23 24 23 23 23 24 24 25 25 26 25 25 24 25 24 24 24 24 24 23 23 23 23 23
25 23 20 22 21 27 23 25 27 30 29 30 30 30 30 29 29 29 28 28 27 26 25 24 23 23 23 23 23 23 23 24 25 25 26 26 26 26 25 25 25 24 24 24 23 23 23 23 22
23 24 24 22 22 22 22 24 29 29 29 28 30 31 30 30 30 29 29 29 28 27 26 25 24 23 23 23 23 23 23 23 24 25 26 26 26 26 26 25 25 25 24 24 24 23 23 23 22
25 25 25 20 24 23 23 25 26 27 28 28 27 28 30 30 30 30 30 29 29 28 26 26 25 24 24 23 23 23 24 24 25 25 26 26 26 26 26 26 25 25 24 24 24 23 23 23 22
24 24 23 24 20 23 22 24 24 27 28 31 32 30 30 29 29 30 30 30 29 29 27 26 25 24 24 23 23 23 23 23 24 24 26 26 26 26 26 26 25 25 24 24 23 23 23 23 22
29 27 22 25 22 21 21 25 27 28 29 27 28 29 28 28 29 30 30 30 29 29 28 26 26 25 24 24 23 23 23 23 23 24 25 26 26 26 26 26 25 25 25 25 24 23 23 23 22
Height
776 779 780 781 795 793 791 780 766 772 776 771 768 775 784 789 793 808 798 802 805 810 814 817 819 820 821 822 824 826 827 829 831 833 834 836 837 837 838 838 838 838 839 839 839 839 840 840 840
777 779 781 781 796 802 789 774 777 774 772 769 773 778 785 795 790 796 800 804 808 811 816 820 821 822 824 825 827 829 830 831 833 835 837 838 839 839 840 840 840 840 841 841 841 842 842 842 842
778 779 784 789 793 802 795 773 778 772 767 768 779 778 785 794 794 797 801 805 809 814 818 821 823 825 827 828 830 833 834 834 836 838 838 839 840 841 842 843 842 842 842 842 843 843 843 844 843
777 779 782 791 795 779 778 770 770 773 770 770 775 789 787 790 794 797 802 806 811 816 820 823 825 827 829 832 834 835 836 837 838 839 840 841 842 843 844 844 844 843 844 844 845 844 845 845 845
777 778 792 794 788 775 766 762 765 772 774 777 775 793 794 795 796 799 804 808 813 817 821 824 827 829 831 834 836 837 838 839 839 840 842 843 844 845 845 846 845 845 845 845 846 846 846 846 846
783 780 793 800 788 773 764 760 764 772 777 780 785 789 799 798 799 803 807 811 815 818 822 826 829 831 833 835 837 838 839 839 841 842 844 845 845 846 847 847 847 847 847 847 847 848 847 847 848
785 789 791 792 788 778 767 760 770 774 778 781 777 795 799 802 803 806 810 813 817 821 823 827 830 832 835 836 838 839 840 841 843 844 845 846 846 848 848 848 848 848 848 848 849 849 848 848 849
781 788 796 790 788 784 760 761 763 769 777 773 777 796 800 798 803 808 811 815 819 822 825 828 830 833 835 837 839 840 841 843 845 846 847 847 848 849 849 849 848 848 849 849 849 849 849 849 849
778 797 801 784 783 769 756 767 764 764 773 773 776 780 784 794 801 807 812 816 820 823 825 828 830 833 835 837 839 840 843 844 845 846 847 848 849 849 850 849 849 849 850 851 851 851 850 850 850
783 795 782 761 757 763 757 762 768 773 775 778 779 781 790 796 801 805 810 813 818 821 825 827 829 832 835 837 839 841 843 844 846 847 847 848 849 850 850 850 850 850 850 850 851 852 851 851 851
778 782 762 755 751 749 756 763 762 773 782 771 778 782 790 795 801 804 809 810 812 818 823 825 828 831 834 835 838 840 842 844 846 847 848 848 849 850 850 850 850 850 851 851 851 851 851 851 852
780 763 760 754 745 750 757 755 764 767 765 760 769 773 784 793 797 801 805 808 812 816 820 823 826 829 832 835 837 840 842 844 845 846 847 848 849 850 850 850 851 851 851 851 851 851 852 853 853
771 760 753 748 743 746 749 754 759 763 757 762 774 779 783 792 795 800 802 806 810 814 818 821 824 827 830 833 836 838 840 842 844 846 847 848 849 850 851 851 851 851 851 851 851 852 852 852 853
752 753 751 747 745 746 755 757 758 761 760 769 777 781 785 788 791 798 800 803 807 811 815 819 822 825 829 831 834 836 839 841 844 845 846 847 849 850 850 851 851 852 851 851 851 851 851 851 852
748 760 750 746 746 750 750 769 764 756 762 769 777 782 786 788 791 793 795 799 803 807 812 815 819 823 826 829 832 835 837 840 842 843 844 846 848 849 850 850 851 851 852 851 851 851 851 851 851
757 761 777 745 741 744 752 775 753 753 761 769 773 781 783 786 788 790 793 796 801 805 808 813 817 820 824 827 830 833 836 838 840 840 842 845 847 848 849 849 850 850 851 851 852 851 851 851 851
774 785 777 761 736 742 750 763 746 747 756 766 769 777 780 783 786 788 790 792 797 801 804 809 814 817 821 824 828 831 834 836 837 839 839 842 844 846 847 848 849 849 849 850 851 851 851 851 852
784 778 770 765 741 745 755 753 745 745 751 758 763 771 776 778 775 780 785 789 793 798 802 806 810 814 818 822 826 829 832 834 835 836 837 839 841 843 845 847 847 848 848 848 849 851 851 852 852
762 762 763 752 739 747 754 754 751 746 752 758 760 765 770 768 769 777 782 787 791 794 798 801 806 809 814 818 822 826 828 831 832 834 836 837 839 840 843 845 845 847 847 848 849 850 850 850 851
758 763 764 753 740 743 749 753 749 746 742 744 751 757 759 765 768 771 776 782 785 785 788 794 799 804 808 812 815 820 823 826 829 831 833 835 836 838 840 842 843 845 846 847 848 848 849 849 850
761 763 764 760 745 740 750 762 757 748 744 747 748 750 754 757 760 764 768 772 777 780 782 785 790 795 801 806 812 816 819 822 825 827 829 831 834 835 836 839 841 843 844 845 847 848 849 849 849
773 747 751 756 762 784 747 791 763 745 747 744 744 746 745 749 752 757 762 765 765 769 775 781 786 791 795 801 806 809 812 816 819 821 825 828 830 833 834 836 838 841 842 843 844 847 848 849 849
747 736 747 749 765 765 760 780 757 743 751 742 735 733 734 737 740 745 749 753 755 759 766 771 778 784 789 793 798 802 807 809 813 817 820 823 826 829 831 832 835 838 839 841 843 844 846 847 848
728 742 756 767 776 789 762 772 763 751 733 730 724 722 724 727 731 734 738 742 750 757 762 768 771 774 781 787 792 796 800 803 807 812 815 818 821 824 826 828 831 834 836 838 840 842 844 845 846
730 757 794 795 798 768 753 769 728 718 707 706 711 710 711 714 720 725 730 735 740 747 752 757 763 767 772 778 785 790 793 797 800 804 808 812 816 818 821 824 827 829 832 835 837 839 841 843 844
732 747 786 802 800 757 760 755 728 698 696 695 693 694 700 707 709 713 716 722 728 734 742 746 751 758 764 769 775 781 787 790 793 799 803 806 809 813 817 819 822 825 828 831 834 836 838 840 841
734 746 734 767 766 778 760 732 702 693 696 696 692 693 694 695 699 700 704 711 716 723 728 734 741 746 755 760 765 773 779 784 787 791 797 800 805 809 812 814 817 820 824 827 830 832 834 836 838
710 714 749 770 775 780 758 742 730 708 699 693 695 691 684 684 687 689 694 700 705 710 715 724 730 737 743 751 758 764 768 774 780 785 788 792 797 803 806 810 812 814 818 822 825 829 831 832 834
715 724 727 731 760 761 773 744 703 694 685 677 672 672 672 674 675 676 680 686 693 701 709 714 721 728 735 741 749 755 762 768 773 776 780 784 790 795 798 803 806 808 811 815 819 822 825 827 830
677 694 720 731 752 751 751 725 676 670 667 673 670 662 663 664 665 665 669 676 685 692 699 704 712 721 724 731 738 744 749 757 762 767 772 776 781 787 791 795 799 801 804 807 810 814 817 821 824
Wind_Speed
14 12 5 1 1 0 3 1 2 5 3 1 4 3 8 5 2 3 17 14 23 24 22 22 22 21 21 21 21 21 20 20 19 19 18 16 14 13 11 10 9 9 10 9 10 10 8 8 8
17 12 2 1 1 2 2 1 3 2 7 11 9 7 5 4 4 9 10 24 27 25 24 22 24 22 20 20 20 19 18 18 17 17 16 14 13 12 10 9 8 8 8 8 8 8 7 7 7
16 3 2 1 1 1 3 2 6 11 9 4 5 6 3 4 9 13 13 27 26 25 23 23 25 22 20 20 18 18 17 16 16 15 14 13 11 10 9 8 7 8 9 7 7 6 6 6 5
8 1 1 0 3 3 3 4 7 7 6 7 12 8 5 11 12 10 33 26 27 23 22 23 23 21 19 18 18 17 16 15 14 13 12 11 10 8 8 7 7 8 7 6 5 6 6 5 5
2 1 2 3 4 4 3 6 7 5 4 5 2 5 7 4 9 28 28 27 28 24 22 22 22 21 19 17 16 16 15 13 13 12 11 9 8 7 6 6 6 7 6 6 7 7 6 6 6
2 1 2 2 4 4 4 4 4 6 6 9 9 7 3 18 27 26 26 29 26 25 22 21 21 20 18 16 15 14 13 12 11 10 9 8 7 6 5 5 5 5 5 6 7 7 7 5 5
4 1 4 0 6 4 3 5 5 6 8 6 10 5 5 14 24 26 26 27 26 23 22 21 21 19 17 15 14 13 12 11 10 9 8 8 6 5 5 5 4 4 4 4 5 6 5 4 4
3 2 1 3 3 3 7 4 8 7 3 7 10 7 9 18 26 26 26 26 25 22 22 21 21 20 18 16 14 13 11 11 9 8 7 6 5 4 3 4 4 4 3 3 5 4 4 3 4
3 2 4 3 5 3 11 4 4 6 10 4 4 5 14 29 28 24 23 23 24 22 22 20 21 21 20 18 15 13 11 11 9 8 7 5 4 3 3 3 3 4 4 4 4 4 3 4 4
3 3 6 5 5 5 13 8 8 4 10 3 8 18 27 31 26 24 23 22 23 24 24 24 22 22 21 19 17 16 14 12 11 9 8 6 4 2 1 0 1 1 1 2 1 2 2 2 4
5 5 3 4 5 8 15 8 4 9 5 6 19 23 22 26 23 22 22 24 29 29 26 27 26 24 23 22 20 18 16 14 12 10 9 7 5 4 3 3 4 2 2 2 1 1 1 1 2
3 10 7 7 3 9 13 10 5 14 4 9 21 26 23 20 20 23 23 24 25 28 30 29 28 26 25 23 21 19 18 16 14 13 10 8 6 3 2 3 2 2 2 3 2 2 1 1 1
6 5 4 9 6 10 10 15 8 16 6 18 18 21 22 19 22 24 25 25 27 29 33 31 30 28 26 25 22 21 20 18 15 13 12 10 8 6 5 5 4 3 3 3 3 1 2 1 2
7 7 9 7 6 6 13 8 8 7 14 17 19 19 18 20 24 23 24 24 27 33 34 33 33 30 27 26 24 23 20 18 16 15 13 13 11 8 7 8 7 4 5 3 2 3 2 3 4
5 7 6 5 5 7 6 3 12 10 17 20 18 16 17 16 24 24 27 26 31 34 35 35 35 32 30 28 26 23 21 19 18 17 16 15 13 11 7 10 10 6 4 6 5 3 3 3 0
2 4 0 7 6 7 11 13 16 17 19 19 19 16 17 16 22 26 27 29 29 30 32 35 35 34 32 30 28 24 22 19 18 18 18 17 14 13 13 12 11 9 8 7 5 4 4 3 4
4 4 5 6 7 4 12 7 12 19 20 19 19 17 16 15 19 25 28 30 31 34 34 34 34 35 34 32 29 26 22 20 19 19 20 19 18 17 15 14 11 10 10 9 8 4 3 2 3
5 4 4 5 3 7 8 11 11 21 21 22 20 18 17 17 21 28 29 29 31 35 35 34 34 34 33 33 31 28 25 22 18 14 13 15 17 19 17 16 12 10 10 11 9 5 3 1 1
6 4 6 4 3 5 9 5 9 17 16 17 18 18 18 21 21 25 27 29 29 31 34 36 36 35 34 35 33 31 29 25 22 19 14 15 15 19 19 18 12 14 11 9 6 6 5 3 1
6 3 5 5 7 3 5 9 8 17 22 22 20 20 21 16 15 21 26 28 29 36 40 40 41 40 39 39 38 32 32 30 28 24 20 17 17 17 22 21 15 13 12 9 8 7 5 3 2
6 12 5 5 6 2 5 4 8 10 5 11 15 17 16 18 18 17 24 31 32 33 37 42 46 44 43 41 34 31 28 29 29 28 25 21 18 17 22 18 18 15 13 13 11 10 7 5 4
9 7 6 8 1 4 5 5 5 13 19 17 15 19 20 19 17 16 20 29 35 37 38 39 40 41 44 42 35 35 29 26 31 34 31 25 23 21 21 22 21 17 14 14 13 12 9 7 7
8 7 9 6 5 1 3 1 6 11 13 19 19 20 21 22 21 20 21 34 39 39 39 42 42 42 42 44 41 40 31 35 35 32 27 27 26 23 23 22 21 19 17 16 15 15 13 10 11
9 6 6 5 4 7 10 8 5 8 20 20 20 22 22 22 22 22 29 35 32 33 33 34 37 43 43 43 45 40 36 34 35 29 26 27 28 26 25 24 22 21 19 18 17 16 14 12 11
8 6 1 1 2 11 10 7 15 11 18 24 26 27 24 24 24 23 22 21 30 32 35 36 38 39 43 45 44 43 43 41 40 37 30 28 29 28 27 26 24 24 21 20 19 19 17 15 13
9 10 6 7 5 11 6 10 8 13 12 18 21 24 21 21 22 24 25 28 31 35 36 37 38 38 40 44 45 46 44 42 43 40 36 32 32 30 26 27 29 28 25 22 21 21 19 17 14
6 9 10 5 2 2 5 6 6 5 12 13 19 17 19 21 21 25 25 32 34 35 40 41 39 41 40 44 45 43 44 41 41 41 39 35 34 30 26 25 28 30 28 25 22 24 22 19 16
10 11 4 1 6 6 5 4 6 10 12 14 9 17 19 17 21 22 22 27 35 38 41 41 42 41 44 42 42 43 48 48 47 44 42 42 38 34 32 28 26 30 31 28 26 26 24 22 19
4 5 3 6 6 6 1 6 8 10 15 19 19 17 17 17 19 21 21 30 36 36 35 40 40 39 40 41 41 40 40 41 46 45 45 43 41 36 36 33 30 31 33 31 31 30 28 25 23
20 14 7 8 7 5 4 8 4 10 11 11 10 13 9 12 17 20 21 23 28 33 33 36 36 38 42 42 41 43 44 43 43 46 47 44 42 39 38 37 35 35 37 35 35 35 33 30 27
Wind_Direction
150 158 147 297 329 81 265 252 111 123 96 357 69 140 123 60 79 141 149 142 147 149 148 145 136 131 126 124 123 123 124 122 123 119 117 118 119 115 109 106 104 101 92 86 89 93 105 116 118
152 147 174 287 280 301 267 306 86 99 128 107 91 91 53 80 78 116 127 148 149 149 150 147 140 138 130 129 127 126 121 122 118 119 124 126 124 115 106 100 95 87 85 86 87 95 102 115 133
149 160 107 88 314 271 298 60 116 140 157 119 112 59 75 100 117 138 158 150 148 146 149 148 144 141 136 133 133 130 127 125 128 130 129 124 120 113 107 102 93 85 78 78 88 94 105 106 115
168 186 72 59 295 250 216 82 138 143 90 62 116 87 80 119 133 158 151 150 148 143 149 148 147 145 142 139 137 138 134 132 133 132 126 121 119 113 103 96 88 78 73 78 84 94 97 105 112
71 49 47 333 284 307 275 132 149 127 88 103 77 88 96 90 144 143 151 153 150 147 150 150 156 151 150 149 147 144 137 139 138 133 128 123 122 115 103 94 81 70 71 74 83 88 94 104 119
47 242 352 289 303 305 309 139 99 86 105 119 96 87 79 133 131 145 154 156 155 152 155 154 161 161 160 158 157 151 149 148 142 137 132 128 125 115 102 83 71 62 68 76 78 79 85 96 96
126 152 231 209 283 312 174 160 116 120 136 122 139 99 113 144 144 150 157 160 159 158 161 163 165 170 168 168 165 162 163 157 151 145 139 137 128 111 92 76 67 69 79 77 80 81 73 60 64
113 70 282 225 230 260 149 122 124 115 72 107 145 159 160 164 152 152 160 164 166 167 168 171 174 177 178 177 175 174 173 168 161 155 148 141 133 116 93 64 58 61 71 93 86 65 63 28 31
164 146 217 239 182 225 145 117 144 96 136 165 162 131 143 152 147 149 155 164 174 176 175 176 184 185 187 186 183 187 183 181 176 174 170 164 158 140 104 75 55 45 47 68 73 60 31 23 353
152 164 233 219 201 168 161 134 143 120 159 83 92 110 136 148 153 156 165 169 178 184 182 183 191 194 193 193 189 199 193 195 192 190 187 185 199 205 209 222 348 7 2 331 46 70 320 30 31
183 219 224 279 253 173 165 144 144 139 222 190 154 144 154 158 161 164 173 177 182 186 187 192 195 200 198 199 198 203 203 204 204 203 203 207 224 238 257 252 248 250 264 309 261 214 108 62 26
201 237 249 292 261 155 173 142 165 177 235 141 156 153 155 166 170 174 178 181 183 188 194 197 200 201 202 203 204 206 209 209 210 210 211 216 220 215 225 208 221 254 246 294 348 213 84 42 317
231 244 238 237 282 170 145 184 172 198 98 131 145 154 163 171 176 182 181 183 186 195 199 202 202 204 205 206 209 211 212 214 217 219 218 220 229 235 238 230 214 241 262 256 317 286 325 337 306
201 224 242 248 235 188 178 181 140 197 131 138 157 167 174 178 179 179 182 185 189 200 203 205 205 207 208 209 211 214 216 219 225 224 222 226 232 241 259 239 231 254 238 218 298 313 279 305 297
246 298 343 198 213 215 150 144 212 143 151 154 168 177 180 191 185 186 188 191 196 202 206 208 207 209 212 214 214 217 220 224 224 223 224 226 236 247 259 244 243 251 249 221 244 270 254 286 152
168 104 82 292 191 210 145 223 213 157 159 169 171 184 190 193 198 195 194 197 200 201 204 209 210 211 212 216 218 219 222 223 228 238 233 236 239 245 249 245 241 244 242 235 247 273 256 259 301
338 187 205 315 206 131 175 230 205 167 172 172 177 190 195 193 204 206 202 198 201 204 207 209 210 212 212 215 220 221 222 225 236 247 251 240 240 242 241 241 247 247 236 241 236 243 259 325 25
213 195 206 203 261 178 203 235 177 175 174 181 178 189 196 199 207 205 206 203 202 208 212 211 210 213 213 215 219 223 227 232 235 239 232 225 236 232 233 235 239 231 241 254 236 228 209 250 306
206 218 197 210 215 172 215 220 191 177 184 183 181 190 200 207 203 205 206 204 200 204 207 210 209 212 212 213 217 223 226 227 227 229 225 224 231 230 229 232 239 236 252 260 256 250 244 243 248
218 221 257 288 257 173 190 223 184 184 192 188 185 193 203 203 193 200 201 203 201 200 207 208 212 213 213 213 213 216 222 227 226 228 227 228 229 230 228 229 236 235 243 250 232 237 249 281 188
206 212 202 221 349 87 92 308 158 212 212 189 203 205 208 204 202 202 198 200 203 205 204 207 212 211 214 215 213 214 222 225 225 230 228 224 228 225 230 233 234 237 241 247 242 226 233 229 222
215 166 170 218 152 234 155 255 229 196 202 200 201 202 207 207 211 208 208 208 202 208 209 210 209 209 215 215 211 211 210 214 227 233 234 229 228 226 237 238 239 238 240 247 236 222 222 220 212
209 161 181 178 188 291 216 70 261 175 205 211 207 211 208 207 207 204 205 212 213 206 205 207 209 211 213 214 212 214 209 220 231 235 229 223 225 227 234 241 238 234 237 242 231 220 217 229 219
156 103 50 54 105 245 218 182 228 189 208 213 215 220 213 208 209 211 208 212 215 210 208 207 204 207 210 214 214 213 212 216 223 225 221 223 226 230 235 239 234 233 236 236 226 224 222 222 224
155 114 305 236 186 240 186 203 233 213 205 206 206 218 215 210 209 212 211 203 205 203 203 202 203 205 207 211 214 213 217 218 223 225 221 224 225 228 234 234 230 230 234 233 230 223 222 220 224
191 166 155 197 211 240 130 227 235 200 217 220 214 220 218 214 212 212 211 208 203 200 203 200 200 205 204 208 211 214 216 218 224 226 226 227 228 231 237 232 231 232 233 230 231 225 224 224 225
204 187 180 83 260 35 226 299 308 199 205 204 220 220 221 215 213 214 213 209 206 203 201 201 201 204 203 206 208 209 214 215 222 226 227 229 229 231 233 234 234 230 229 228 231 225 224 226 230
156 158 156 109 197 233 278 254 223 194 208 214 207 210 222 210 209 214 213 210 207 204 203 202 203 204 204 206 205 209 213 217 223 226 227 227 231 231 233 234 237 231 227 225 227 226 228 226 229
130 175 166 164 160 204 296 253 209 210 219 210 223 218 214 208 208 210 210 207 206 206 199 202 201 202 201 203 205 205 210 213 219 223 230 231 231 231 231 234 237 235 225 223 223 226 228 227 228
207 199 154 182 223 238 168 242 237 232 203 204 229 234 211 203 206 209 206 202 199 202 199 200 200 202 204 203 202 204 207 209 213 220 228 231 231 232 231 232 237 235 227 225 223 224 225 227 227